Regional Weather Roundup
Issued by NWS San Angelo, TX

Home | Current Version | Previous Version | Text Only | Print | Product List | Glossary On
Versions: 1 2 3 4 5 6 7 8 9 10 11 12 13 14 15 16 17 18 19 20 21 22 23 24 25 26 27 28 29 30 31 32 33 34 35 36 37 38 39 40 41 42 43 44 45 46 47 48 49 50
000
ASUS44 KSJT 251810
RWRSJT
WEST CENTRAL TEXAS REGIONAL WEATHER ROUNDUP
NATIONAL WEATHER SERVICE SAN ANGELO TX
100 PM CDT THU MAY 25 2017

NOTE: "FAIR" INDICATES FEW OR NO CLOUDS BELOW 12,000 FEET WITH NO
SIGNIFICANT WEATHER AND/OR OBSTRUCTIONS TO VISIBILITY.

TXZ049-054-064>066-071>073-076>078-098-099-113-114-127-128-139-140-
154-155-168>170-251900
...LOCATIONS ACROSS WEST CENTRAL TEXAS...

CITY           SKY/WX    TMP DP  RH WIND       PRES   REMARKS
SAN ANGELO     CLOUDY    92  54  27 SW21      29.70F
ABILENE        CLOUDY    86  57  37 S23G37    29.66S
DYESS AFB      CLOUDY    88  60  39 S16       29.64S
JUNCTION       SUNNY     90  60  36 SW16G25   29.75F
SWEETWATER     CLOUDY    91  47  22 SW21      29.69F
BROWNWOOD      SUNNY     86  55  35 S15G25    29.70S
COLEMAN        CLEAR     90  55  31 S18G24    29.70S
SONORA         MOSUNNY   86  57  37 S16G22    29.81F
OZONA            N/A     88  50  27 S17G25    29.80S
BRADY          NOT AVBL
$$

TEXAS PANHANDLE/OKLAHOMA PANHANDLE

CITY           SKY/WX    TMP DP  RH WIND       PRES   REMARKS
AMARILLO       CLOUDY    93  34  12 W22G29    29.63F
BORGER         MOSUNNY   92  37  14 W14G23    29.59R
CANADIAN       SUNNY     86  58  38 S8        29.54S
DALHART        CLOUDY    90  38  16 W17G28    29.64S
DUMAS          PTCLDY    88  42  19 SW18G26   29.62F
GUYMON         NOT AVBL
HEREFORD       CLEAR     94  30  10 W23G31    29.68F
PAMPA          CLEAR     93  37  14 W21       29.60S
PERRYTON       SUNNY     87  52  29 S6        29.53F
$$

SOUTHERN PANHANDLE/SOUTH PLAINS/ROLLING PLAINS

CITY           SKY/WX    TMP DP  RH WIND       PRES   REMARKS
LUBBOCK        MOSUNNY   99  25   7 W21G30    29.67S
SNYDER         CLOUDY    94  41  16 W16       29.67S
CHILDRESS      MOSUNNY   89  47  23 VRB7      29.56F
SEMINOLE       CLEAR     94  29  10 W15G22    29.75S
$$

PERMIAN BASIN

CITY           SKY/WX    TMP DP  RH WIND       PRES   REMARKS
MIDLAND        SUNNY     99  26   7 W17       29.73F
ODESSA         SUNNY     97  23   7 W16       29.75F
WINK           MOSUNNY  100  23   6 W23G30    29.73S
$$

FAR WEST/SOUTHWEST MOUNTAINS/TRANS PECOS

CITY           SKY/WX    TMP DP  RH WIND       PRES   REMARKS
ALPINE         CLEAR     92  25   9 W12G22    29.95F
DRYDEN           N/A     87  54  32 SE7       29.76F
EL PASO        MOSUNNY   88  17   7 W20G30    29.86S
FORT STOCKTON  SUNNY     98  28   8 W16G23    29.78F
GUADALUPE PASS CLOUDY    84  21  10 SW33G49   29.92S
MARFA          SUNNY     90  28  11 SW8G21    29.95F
PECOS          CLEAR     96  28   9 W20       29.75S
$$

DALLAS/FORT WORTH METROPLEX

CITY           SKY/WX    TMP DP  RH WIND       PRES   REMARKS
DFW AIRPORT    MOSUNNY   87  55  33 S24G31    29.65F
FTW MEACHAM    SUNNY     90  56  31 S21G30    29.65F
DAL-EXECUTIVE  SUNNY     85  55  35 S14G23    29.69F
GRAND PRAIRIE  SUNNY     84  50  30 S17G28    29.70F
ADDISON        NOT AVBL
MESQUITE       CLEAR     82  55  39 S20G29    29.71F
LANCASTER      CLEAR     84  56  37 S18G24    29.71F
$$

NORTH CENTRAL TEXAS

CITY           SKY/WX    TMP DP  RH WIND       PRES   REMARKS
SHRMAN/DENISON CLEAR     83  57  42 S17G24    29.67F
GAINESVILLE    SUNNY     85  55  36 S20G29    29.66F
BRIDGEPORT     CLEAR     89  54  30 S21       29.65F
DENTON         SUNNY    N/A N/A N/A S18G25    29.65F
WAXAHACHIE     CLEAR     83  56  39 S15G24    29.72F
GRANBURY       CLEAR     89  53  28 SE22      29.67F
$$

WESTERN NORTH TEXAS

CITY           SKY/WX    TMP DP  RH WIND       PRES   REMARKS
WICHITA FALLS  MOSUNNY   89  53  29 S22G31    29.57F
VERNON         CLOUDY    87  43  21 S15       29.57F
BRECKENRIDGE   CLEAR     88  54  31 S20G26    29.64F HAZE
COMANCHE       SUNNY     86  56  36 S17G29    29.70S
$$

CENTRAL AND SOUTH CENTRAL TEXAS

CITY           SKY/WX    TMP DP  RH WIND       PRES   REMARKS
AUSTIN/BERGSTM MOSUNNY   89  58  34 S20G26    29.76S
WACO           SUNNY     87  56  34 S20G26    29.73F
HILLSBORO      CLEAR     85  56  36 S17G30    29.72F
TEMPLE         SUNNY     87  57  35 S25G31    29.74F
KILLEEN-GRAY   MOSUNNY   86  52  31 S20G29    29.73F
FORT HOOD      MOSUNNY   85  52  31 S23G31    29.71F
GEORGETOWN     SUNNY     84  54  34 S23G44    29.76S
LAGO VISTA     FAIR      86  51  30 SW16G25   29.79F
SAN MARCOS     SUNNY     88  57  35 S21       29.79S
NEW BRAUNFELS  SUNNY     89  59  36 S18       29.77F
RANDOLPH AFB   MOSUNNY   86  61  42 S16       29.79S
SAN ANTONIO    MOSUNNY   86  61  42 S15G22    29.79F
STINSON        SUNNY     88  62  41 S14G24    29.77F
PLEASANTON     NOT AVBL
LA GRANGE      SUNNY     89  62  40 S17G26    29.77F
GIDDINGS       CLEAR     86  55  34 S16G24    29.78F
$$

EAST TEXAS

CITY           SKY/WX    TMP DP  RH WIND       PRES   REMARKS
PARIS          SUNNY     81  57  44 S16G22    29.73F
CLARKSVILLE    NOT AVBL
TYLER          SUNNY     82  58  43 SW21G28   29.76F
LONGVIEW       SUNNY     84  60  44 S15       29.76F
PALESTINE      CLEAR     83  62  47 S16       29.79S
NACOGDOCHES    SUNNY     82  61  47 S15G22    29.78S
$$

TEXAS HILL COUNTRY AND EDWARDS PLATEAU

CITY           SKY/WX    TMP DP  RH WIND       PRES   REMARKS
LLANO          CLEAR     90  57  33 S16G22    29.76F
HORSESHOE BAY  NOT AVBL
KERRVILLE      SUNNY     84  62  46 S16       29.80F
FREDERICKSBRG  SUNNY     85  56  37 S17G23    29.79S
ROCKSPRINGS    PTCLDY    82  63  51 S14G20    29.83F
HONDO          SUNNY     86  63  45 S13G22    29.79F
UVALDE         CLEAR     84  63  49 S9        29.78F
DEL RIO        SUNNY     85  63  47 SE17      29.74F
$$

SOUTHEAST TEXAS

CITY           SKY/WX    TMP DP  RH WIND       PRES   REMARKS
COLLEGE STN    SUNNY     87  61  41 S16G24    29.77F
CALDWELL       NOT AVBL
CROCKETT       CLEAR     82  63  51 S15G21    29.81F
BRENHAM        SUNNY     88  60  38 S17G24    29.79F
HUNTSVILLE     SUNNY     86  59  39 S14G25    29.80S
CONROE         SUNNY     87  60  40 S20       29.81F
HOUSTON BUSH   SUNNY     86  60  41 S15G22    29.81F
HOUSTON HOBBY  SUNNY     85  62  46 S17G25    29.82F
PERLAND        SUNNY     87  60  40 S15       29.84F
WHARTON        CLEAR     84  57  39 S17G25    29.83S
$$

THE UPPER TEXAS COAST

CITY           SKY/WX    TMP DP  RH WIND       PRES   REMARKS
ORANGE         CLEAR     83  65  54 S17G25    29.87F
PORT ARTHUR    SUNNY     84  63  49 SW14G24   29.85F
GALVESTON      SUNNY     84  65  52 S18G28    29.86F
ANGLETON       SUNNY     86  64  47 S21G29    29.83F
BAY CITY       CLEAR     85  64  49 S16G22    29.83F
$$

TEXAS COASTAL BEND, RIO GRANDE PLAINS DEEP SOUTH TEXAS

CITY           SKY/WX    TMP DP  RH WIND       PRES   REMARKS
VICTORIA       SUNNY     88  54  31 S22G29    29.81F
BEEVILLE       FAIR      88  68  52 SE20      29.80F
ROCKPORT       SUNNY     84  67  56 S15G22    29.82S
PORT ARANSAS   CLEAR     83  68  60 S20G25    29.82F
PORT LAVACA    CLEAR     84  66  54 S17G24    29.82F
CORPUS CHRISTI MOSUNNY   86  69  56 SE22G30   29.80F
KINGSVILLE NAS MOSUNNY   91  70  49 SE21G29   29.78F
COTULLA        SUNNY     90  61  37 S8G17     29.76F
LAREDO         SUNNY     90  70  51 S18       29.75F
BROWNSVILLE    CLOUDY    88  73  61 SE21G30   29.81F
PORT ISABEL    PTSUNNY   88  71  57 S18G30    29.80F
HEBBRONVILLE   CLEAR     90  65  43 S15       29.78F
MCALLEN        MOSUNNY   94  72  48 SE16G25   29.78F
WESLACO        CLOUDY    91  71  53 S17G23    29.78F
FALFURRIAS     CLEAR     91  66  43 SE14G20   29.77F
EDINBURG       MOCLDY    95  68  41 S14G23    29.78F
$$



USA.gov is the U.S. government's official web portal to all federal, state and local government web resources and services.